Weather History for MWCR - May, 2013

Change the Weather History Date:

Thursday, May 16, 2013

  Actual Average Record
Temperature  
Mean Temperature 84 °F -  
Max Temperature 88 °F 86 °F 93 °F (2003)
Min Temperature 80 °F 78 °F 35 °F (2002)
Cooling Degree Days 19    
Growing Degree Days 34 (Base 50)    
Moisture  
Dew Point 76 °F    
Average Humidity 77    
Maximum Humidity 89    
Minimum Humidity 64    
Precipitation  
Precipitation 0.00 in - - ()
Sea Level Pressure  
Sea Level Pressure 29.97 in    
Wind  
Wind Speed 7 mph ()    
Max Wind Speed 10 mph    
Max Gust Speed -    
Visibility 6.2 miles    
Events      
Averages and records for this station are not official NWS values.
T = Trace of Precipitation, MM = Missing Value Source: Averaged Metar Reports

Daily Weather History Graph

Daily Weather History Graph

Search for Another Location

Airport or City:

Trip Planner

Search our weather history database for the weather conditions in past years. The results will help you decide how hot, cold, wet, or windy it might be!

Date:

Astronomy

May. 16, 2013 Rise Set
Actual Time 5:50 AM EST 6:53 PM EST
Civil Twilight 5:26 AM EST 7:17 PM EST
Nautical Twilight 4:58 AM EST 7:45 PM EST
Astronomical Twilight 4:30 AM EST 8:13 PM EST
Moon 11:08 AM EST (5/16) No Moon Set
Length of Visible Light 13h 50m
Length of Day
13h 03m
Waxing Crescent, 36% of the Moon is Illuminated
May 16
Waxing Crescent
May 17
First Quarter
May 24
Full
May 31
Last Quarter
Jun 8
New

Hourly Weather History & Observations

Time (EST) Temp. Heat Index Dew Point Humidity Pressure Visibility Wind Dir Wind Speed Gust Speed Precip Events Conditions
6:15 AM 80.6 °F 87.1 °F 77.0 °F 89% 29.95 in 6.2 mi East 8.1 mph - N/A   Partly Cloudy
7:00 AM 81 °F - 77 °F 84% 29.98 in 6 mi East 10.4 mph - -  
7:00 AM 80.6 °F 87.1 °F 77.0 °F 89% 29.98 in 6.2 mi East 10.4 mph - N/A   Partly Cloudy
8:00 AM 84.2 °F 94.1 °F 77.0 °F 79% 29.98 in 6.2 mi East 10.4 mph - N/A   Scattered Clouds
9:00 AM 86.0 °F 96.9 °F 77.0 °F 74% 29.98 in 6.2 mi ESE 8.1 mph - N/A   Partly Cloudy
10:00 AM 86.0 °F 95.1 °F 75.2 °F 70% 29.98 in 6.2 mi ESE 9.2 mph - N/A   Partly Cloudy
11:00 AM 86.0 °F 95.1 °F 75.2 °F 70% 30.01 in 6.2 mi SE 8.1 mph - N/A   Partly Cloudy
12:00 PM 86.0 °F 96.9 °F 77.0 °F 74% 29.98 in 6.2 mi SE 9.2 mph - N/A   Scattered Clouds
1:00 PM 86 °F - 75 °F 64% 30.00 in 6 mi SE 9.2 mph - -   Scattered Clouds
1:00 PM 86.0 °F 95.1 °F 75.2 °F 70% 29.98 in 6.2 mi SE 9.2 mph - N/A   Partly Cloudy
2:00 PM 86.0 °F 95.1 °F 75.2 °F 70% 29.95 in 6.2 mi SSE 9.2 mph - N/A   Partly Cloudy
3:00 PM 86.0 °F 95.1 °F 75.2 °F 70% 29.95 in 6.2 mi ESE 6.9 mph - N/A   Partly Cloudy
4:00 PM 84.2 °F 94.1 °F 77.0 °F 79% 29.95 in 6.2 mi ENE 9.2 mph - N/A   Partly Cloudy
5:00 PM 84.2 °F 89.6 °F 71.6 °F 66% 29.95 in 6.2 mi SE 6.9 mph - N/A   Partly Cloudy
6:00 PM 84.2 °F 92.3 °F 75.2 °F 74% 29.95 in 6.2 mi ESE 6.9 mph - N/A   Partly Cloudy
7:00 PM 82 °F - 76 °F 77% 29.96 in 6 mi ESE 5.8 mph - -   Scattered Clouds
7:00 PM 82.4 °F 89.5 °F 75.2 °F 79% 29.95 in 6.2 mi ESE 5.8 mph - N/A   Partly Cloudy
8:00 PM 82.4 °F 90.9 °F 77.0 °F 84% 29.98 in 6.2 mi East 4.6 mph - N/A   Partly Cloudy
9:00 PM 80.6 °F 87.1 °F 77.0 °F 89% 29.98 in 6.2 mi East 6.9 mph - N/A   Partly Cloudy
10:00 PM 80.6 °F 87.1 °F 77.0 °F 89% 29.98 in 6.2 mi East 3.5 mph - N/A   Partly Cloudy